[[{"header":{"parameterUnit":"m.s-1","parameterCategory":1,"la1":30.2991,"la2":30.254,"lo1":-89.0895,"lo2":-89.0444,"dy":0.0017,"dx":0.0017,"nx":28,"ny":28,"refTime":"2023-11-13T09:00:00:Z","depth":0,"parameterNumber":2,"parameterNumberName":"U-component_of_WINDS"},"data":[0,0,0,0,0,0,0,0,0,0,0,0,0,0,0,0,0,0,0,0,0,0,0,0,0,0,0,0,0,0,0,0,0,0,0,0,0,0,0,0,0,0,0,0,0,0,0,0,0,0,0,0,0,0,0,0,0,0,-3.7747,-3.7747,0,-3.7737,-3.7737,-3.7737,-3.763,-3.7627,-3.7624,-3.7622,-3.7614,-3.7616,-3.7619,0,0,0,0,0,0,0,0,0,0,0,0,0,-3.7674,-3.7676,-3.7747,-3.7747,-3.7747,-3.7737,-3.7737,-3.7737,-3.763,-3.7627,-3.7624,-3.7621,-3.7613,-3.7616,-3.7619,0,0,0,0,0,0,0,0,0,0,0,0,0,-3.769,-3.7677,-3.7747,-3.7692,-3.7687,-3.7737,-3.7737,-3.7737,-3.7631,-3.7627,-3.7623,-3.7619,-3.7612,-3.7616,-3.7619,-3.7722,0,0,-3.763,-3.7631,0,0,0,0,0,0,0,0,-3.7689,-3.7692,-3.77,-3.7696,-3.7691,-3.7681,-3.7709,-3.7732,-3.7632,-3.7652,-3.7622,-3.7617,-3.764,-3.7641,-3.7648,-3.7721,-3.7721,-3.763,-3.7632,-3.7634,-3.7635,0,0,0,0,0,0,0,-3.7688,-3.7692,-3.7743,-3.7701,-3.7695,-3.7669,-3.7666,-3.7713,-3.7669,-3.765,-3.7642,-3.7643,-3.7636,-3.7645,-3.7647,-3.7721,-3.763,-3.7633,-3.7635,-3.7637,-3.7879,-3.7883,0,0,0,0,0,0,-3.7694,-3.7692,-3.7744,-3.7743,-3.768,-3.7673,-3.7671,-3.7688,-3.7668,-3.7661,-3.7646,-3.7638,-3.7641,-3.7643,-3.7646,-3.7765,-3.7634,-3.7637,-3.7639,-3.7874,-3.788,-3.7884,0,0,0,0,0,0,-3.7693,-3.77,-3.7744,-3.7715,-3.7719,-3.7679,-3.7699,-3.769,-3.7698,-3.7665,-3.7657,-3.7663,-3.7638,-3.7641,-3.7704,-3.7764,-3.7638,-3.7642,-3.7869,-3.7876,-3.7882,-3.8005,0,0,0,0,0,0,-3.7691,-3.77,-3.7738,-3.7717,-3.7721,-3.7802,-3.7703,-3.7693,-3.7704,-3.7693,-3.7678,-3.7672,-3.7635,-3.7699,-3.7707,-3.7766,-3.7644,-3.7864,-3.7872,-3.788,-3.7995,-3.8015,-3.8032,0,0,0,0,0,-3.7689,-3.7774,-3.7741,-3.7748,-3.7768,-3.7805,-3.7808,-3.7762,-3.771,-3.7748,-3.7727,-3.7673,-3.7755,-3.7706,-3.7715,-3.7776,-3.786,-3.787,-3.7879,-3.7987,-3.8011,-3.8031,0,0,0,0,0,0,-3.7804,-3.777,-3.7733,-3.7813,-3.7813,-3.7787,-3.7834,-3.7789,-3.7804,-3.7793,-3.7736,-3.7734,-3.7806,-3.7796,-3.7742,-3.7874,-3.7798,-3.781,-3.7878,-3.79,-3.7918,-3.7919,-3.7647,0,0,0,0,0,-3.7839,-3.7872,-3.784,-3.7914,-3.7915,-3.7875,-3.789,-3.7855,-3.7852,-3.7852,-3.7835,-3.7835,-3.7861,-3.788,-3.7902,-3.7993,-3.7989,-3.8039,-3.8057,-3.8072,-3.8084,-3.8132,-3.8154,-3.7916,-3.7916,-3.7916,0,0,-3.7911,-3.7896,-3.7921,-3.7937,-3.7932,-3.7968,-3.7876,-3.7918,-3.7944,-3.7858,-3.7916,-3.7904,-3.7901,-3.7978,-3.8012,-3.7973,-3.8148,-3.8085,-3.8097,-3.81,-3.8144,-3.8166,-3.8187,-3.7923,-3.7922,-3.7921,0,0,-3.8061,-3.8053,-3.8113,-3.8111,-3.8105,-3.8077,-3.8092,-3.8073,-3.8061,-3.8118,-3.8055,-3.8086,-3.8131,-3.8132,-3.8138,-3.8287,-3.8239,-3.8296,-3.8391,-3.8439,-3.8458,-3.8474,-3.8528,-3.8548,-3.8307,-3.8308,-3.8308,0,-3.8152,-3.8202,-3.8151,-3.8196,-3.8206,-3.8129,-3.819,-3.819,-3.8193,-3.8201,-3.8157,-3.8213,-3.8205,-3.8282,-3.8319,-3.8326,-3.8342,-3.8298,-3.8459,-3.8475,-3.8489,-3.854,-3.8561,-3.8315,-3.8314,-3.8313,-3.8312,0,-3.8314,-3.8351,-3.84,-3.8404,-3.8418,-3.8472,-3.8429,-3.845,-3.8413,-3.8391,-3.845,-3.8438,-3.8456,-3.8472,-3.8437,-3.8544,-3.852,-3.8469,-3.8392,-3.852,-3.8567,-3.8586,-3.8325,-3.8322,-3.832,-3.8318,0,0,-3.8538,-3.8511,-3.8531,-3.8531,-3.8519,-3.8546,-3.8596,-3.8613,-3.8633,-3.8637,-3.8678,-3.8718,-3.867,-3.8678,-3.8642,-3.8683,-3.8804,-3.8626,-3.8625,-3.8661,-3.8922,-3.8962,-3.8985,-3.877,-3.8774,-3.8777,-3.8923,0,-3.8683,-3.8767,-3.8721,-3.8812,-3.8845,-3.8772,-3.8816,-3.8813,-3.8793,-3.8819,-3.8797,-3.8827,-3.876,-3.8764,-3.8802,-3.8781,-3.8856,-3.877,-3.8809,-3.8812,-3.8814,-3.901,-3.9052,-3.919,-3.894,-3.8944,-3.8946,0,-3.8864,-3.8875,-3.8969,-3.895,-3.8962,-3.9002,-3.9014,-3.9039,-3.9035,-3.9017,-3.9026,-3.898,-3.9028,-3.8951,-3.9017,-3.896,-3.8973,-3.8965,-3.8969,-3.8973,-3.8888,-3.902,-3.9233,-3.9255,-3.8974,-3.8972,-3.897,0,-3.9019,-3.9057,-3.9118,-3.9121,-3.91,-3.913,-3.9123,-3.9114,-3.9128,-3.9138,-3.9147,-3.9163,-3.9173,-3.9187,-3.9147,-3.9094,-3.9219,-3.9138,-3.9207,-3.9208,-3.9238,-3.9237,-3.9458,-3.9244,-3.9244,-3.9244,-3.9243,0,-3.9187,-3.9248,-3.9188,-3.9225,-3.9291,-3.9238,-3.9304,-3.9289,-3.9282,-3.9316,-3.9254,-3.9287,-3.9232,-3.926,-3.9228,-3.9289,-3.9293,-3.9281,-3.9272,-3.9288,-3.9289,-3.9297,-3.9287,-3.9249,-3.9248,-3.9247,-3.9246,0,-3.9373,-3.9334,-3.9396,-3.9371,-3.9366,-3.9416,-3.9394,-3.9429,-3.9404,-3.9448,-3.9455,-3.9416,-3.9446,-3.9407,-3.9433,-3.9412,-3.9495,-3.9471,-3.9496,-3.949,-3.9561,-3.9556,-3.9796,-3.9825,-3.9592,-3.9594,-3.9596,0,-3.9483,-3.9527,-3.9507,-3.9525,-3.9521,-3.9551,-3.9564,-3.9513,-3.9529,-3.9527,-3.9562,-3.9586,-3.9603,-3.9654,-3.9629,-3.9648,-3.9625,-3.9708,-3.9628,-3.9642,-3.9628,-3.9626,-3.9631,-3.9725,-3.9728,-3.973,-3.9732,0,-3.9683,-3.9662,-3.9683,-3.9697,-3.9714,-3.9723,-3.9728,-3.9746,-3.9693,-3.9714,-3.9743,-3.9756,-3.9782,-3.9808,-3.982,-3.9813,-3.9765,-3.9757,-3.9774,-3.9791,-3.9804,-3.9799,-3.9542,-3.9752,-3.975,-3.9749,-3.9748,-3.9747,-3.9835,-3.9872,-3.9863,-3.9888,-3.9886,-3.9891,-3.9922,-3.9901,-3.9924,-3.9941,-3.9909,-3.9946,-3.9941,-3.9952,-3.9951,-3.998,-3.9944,-3.9969,-3.9975,-3.9982,-3.9994,-3.9799,-3.9982,-3.9981,-3.9981,-3.998,-3.998,0,-4.0033,-4.0024,-4.0047,-4.0055,-4.0075,-4.0026,-4.0028,-4.0048,-4.0082,-4.008,-4.0097,-4.0131,-4.0155,-4.0131,-4.0151,-4.0179,-4.0157,-4.0186,-4.0184,-4.0183,-4.0024,-4.0008,-4.0203,-4.0203,-4.0203,-4.0203,-4.0203,-4.0203,-4.0139,-4.0198,-4.0176,-4.0233,-4.0223,-4.0258,-4.0264,-4.0269,-4.0267,-4.0308,-4.0327,-4.0311,-4.03,-4.0318,-4.0338,-4.0331,-4.0342,-4.0379,-4.0364,-4.0216,-4.0194,-4.0173,-4.0158,-4.0381,-4.0381,-4.052,-4.0521,-4.0522]},{"header":{"parameterUnit":"m.s-1","parameterCategory":1,"la1":30.2991,"la2":30.254,"lo1":-89.0895,"lo2":-89.0444,"dy":0.0017,"dx":0.0017,"nx":28,"ny":28,"refTime":"2023-11-13T09:00:00:Z","depth":0,"parameterNumber":3,"parameterNumberName":"V-component_of_WINDS"},"data":[0,0,0,0,0,0,0,0,0,0,0,0,0,0,0,0,0,0,0,0,0,0,0,0,0,0,0,0,0,0,0,0,0,0,0,0,0,0,0,0,0,0,0,0,0,0,0,0,0,0,0,0,0,0,0,0,0,0,-4.4939,-4.494,0,-4.4949,-4.4949,-4.4949,-4.4863,-4.486,-4.4858,-4.4856,-4.4864,-4.4866,-4.4869,0,0,0,0,0,0,0,0,0,0,0,0,0,-4.4846,-4.4848,-4.4939,-4.494,-4.494,-4.4949,-4.4949,-4.4949,-4.4863,-4.486,-4.4857,-4.4855,-4.4863,-4.4866,-4.4869,0,0,0,0,0,0,0,0,0,0,0,0,0,-4.4874,-4.4849,-4.4939,-4.4898,-4.4894,-4.4949,-4.4949,-4.4949,-4.4864,-4.486,-4.4857,-4.4853,-4.4862,-4.4866,-4.4869,-4.4963,0,0,-4.4881,-4.4882,0,0,0,0,0,0,0,0,-4.4872,-4.4877,-4.4904,-4.4901,-4.4897,-4.4901,-4.4919,-4.4954,-4.4865,-4.4875,-4.4856,-4.4852,-4.4879,-4.4881,-4.4891,-4.4964,-4.4964,-4.4881,-4.4883,-4.4885,-4.4886,0,0,0,0,0,0,0,-4.4871,-4.4877,-4.4943,-4.4904,-4.49,-4.4878,-4.4878,-4.4925,-4.4897,-4.4874,-4.4868,-4.487,-4.4876,-4.4887,-4.489,-4.4964,-4.4881,-4.4884,-4.4886,-4.4888,-4.5114,-4.5117,0,0,0,0,0,0,-4.4874,-4.4876,-4.4943,-4.4943,-4.4876,-4.4883,-4.4883,-4.4903,-4.4896,-4.4892,-4.4873,-4.4866,-4.4883,-4.4886,-4.489,-4.4999,-4.4885,-4.4888,-4.489,-4.511,-4.5115,-4.5119,0,0,0,0,0,0,-4.4873,-4.4881,-4.4942,-4.4908,-4.4914,-4.4888,-4.4912,-4.4905,-4.4916,-4.4896,-4.489,-4.489,-4.488,-4.4885,-4.4946,-4.4998,-4.489,-4.4893,-4.5105,-4.5111,-4.5117,-4.5218,0,0,0,0,0,0,-4.4871,-4.4881,-4.4917,-4.4909,-4.4916,-4.4999,-4.4915,-4.4908,-4.4923,-4.4914,-4.491,-4.4905,-4.4878,-4.4941,-4.4949,-4.5001,-4.4896,-4.5101,-4.5108,-4.5115,-4.521,-4.5227,-4.5241,0,0,0,0,0,-4.4867,-4.4945,-4.4919,-4.4928,-4.4961,-4.5002,-4.5006,-4.4972,-4.4927,-4.4963,-4.495,-4.4906,-4.4991,-4.4948,-4.4957,-4.501,-4.5097,-4.5106,-4.5114,-4.5203,-4.5223,-4.5241,0,0,0,0,0,0,-4.496,-4.4944,-4.4915,-4.4992,-4.4999,-4.4987,-4.5031,-4.4995,-4.5014,-4.5005,-4.4963,-4.4962,-4.503,-4.5026,-4.4978,-4.51,-4.5036,-4.5047,-4.5101,-4.512,-4.5135,-4.5134,-4.4899,0,0,0,0,0,-4.499,-4.5025,-4.5008,-4.5079,-4.5083,-4.5057,-4.5074,-4.5048,-4.5053,-4.5055,-4.5046,-4.5052,-4.508,-4.51,-4.5125,-4.5209,-4.5207,-4.525,-4.5266,-4.5279,-4.5288,-4.5332,-4.5351,-4.5147,-4.5147,-4.5147,0,0,-4.5051,-4.5046,-4.5071,-4.5097,-4.5099,-4.5136,-4.506,-4.5102,-4.5129,-4.5061,-4.5118,-4.5112,-4.5116,-4.5189,-4.522,-4.5187,-4.5344,-4.529,-4.53,-4.5303,-4.5343,-4.5362,-4.538,-4.5153,-4.5152,-4.5151,0,0,-4.5181,-4.5182,-4.524,-4.5243,-4.5248,-4.5229,-4.5243,-4.5237,-4.523,-4.5286,-4.5236,-4.5267,-4.5316,-4.5321,-4.533,-4.5462,-4.5422,-4.5471,-4.5552,-4.5595,-4.5611,-4.5625,-4.5671,-4.5689,-4.5481,-4.5481,-4.5481,0,-4.5257,-4.5311,-4.5274,-4.532,-4.5332,-4.5273,-4.5331,-4.5336,-4.5348,-4.5358,-4.5321,-4.5382,-4.538,-4.5453,-4.5485,-4.5495,-4.5509,-4.5471,-4.5612,-4.5625,-4.5638,-4.5682,-4.5699,-4.5487,-4.5486,-4.5486,-4.5485,0,-4.5403,-4.5441,-4.5487,-4.5501,-4.5519,-4.5571,-4.5541,-4.5563,-4.5536,-4.5521,-4.5579,-4.5575,-4.5597,-4.5613,-4.5586,-4.5682,-4.5661,-4.5619,-4.5553,-4.5664,-4.5704,-4.5721,-4.5495,-4.5493,-4.5492,-4.549,0,0,-4.5592,-4.5584,-4.5602,-4.5607,-4.5607,-4.5635,-4.5684,-4.5706,-4.5726,-4.5736,-4.5776,-4.5819,-4.5779,-4.579,-4.5763,-4.5801,-4.5905,-4.5753,-4.5752,-4.5781,-4.6009,-4.6041,-4.6061,-4.5878,-4.5881,-4.5884,-4.6009,0,-4.5719,-4.5802,-4.577,-4.5855,-4.589,-4.5833,-4.5875,-4.588,-4.5868,-4.5894,-4.588,-4.5911,-4.5857,-4.5863,-4.5898,-4.5885,-4.595,-4.5875,-4.5914,-4.5916,-4.5914,-4.6082,-4.6116,-4.6235,-4.6024,-4.6027,-4.6029,0,-4.5878,-4.5894,-4.5984,-4.5977,-4.599,-4.6029,-4.6046,-4.6073,-4.6076,-4.6064,-4.6076,-4.6041,-4.6087,-4.6022,-4.6085,-4.6036,-4.6049,-4.6045,-4.6049,-4.6051,-4.5979,-4.6089,-4.6271,-4.6289,-4.6054,-4.6052,-4.605,0,-4.6006,-4.6051,-4.611,-4.6116,-4.611,-4.6138,-4.6137,-4.6137,-4.6152,-4.6167,-4.6176,-4.6197,-4.6208,-4.6225,-4.6196,-4.6151,-4.6263,-4.6196,-4.6254,-4.6255,-4.628,-4.6279,-4.6468,-4.629,-4.629,-4.6289,-4.6289,0,-4.6151,-4.6207,-4.6167,-4.6204,-4.6265,-4.6227,-4.6289,-4.6281,-4.6282,-4.6315,-4.6267,-4.6299,-4.6259,-4.6287,-4.6265,-4.632,-4.6326,-4.6317,-4.6311,-4.6321,-4.6323,-4.633,-4.6321,-4.6294,-4.6293,-4.6292,-4.6291,0,-4.6305,-4.628,-4.6341,-4.633,-4.6328,-4.6374,-4.6364,-4.6397,-4.6381,-4.6424,-4.6431,-4.6407,-4.6437,-4.641,-4.6439,-4.6424,-4.6498,-4.648,-4.6497,-4.6492,-4.6552,-4.6547,-4.6752,-4.6776,-4.6583,-4.6585,-4.6587,0,-4.6399,-4.6441,-4.6434,-4.6453,-4.6455,-4.6486,-4.6501,-4.6466,-4.6484,-4.649,-4.6522,-4.6549,-4.6568,-4.662,-4.6604,-4.6626,-4.6607,-4.6678,-4.661,-4.662,-4.6608,-4.6606,-4.661,-4.6691,-4.6694,-4.6696,-4.6697,0,-4.6568,-4.6553,-4.6577,-4.6598,-4.6617,-4.6631,-4.6641,-4.6659,-4.6622,-4.6645,-4.6675,-4.6691,-4.672,-4.6747,-4.6764,-4.6762,-4.6724,-4.6718,-4.6733,-4.6745,-4.6753,-4.6749,-4.6534,-4.6714,-4.6712,-4.6711,-4.671,-4.6709,-4.6694,-4.6729,-4.6729,-4.6758,-4.6761,-4.6772,-4.6802,-4.679,-4.6815,-4.6836,-4.6814,-4.6851,-4.6852,-4.6871,-4.6874,-4.6902,-4.6873,-4.6894,-4.6899,-4.6905,-4.6914,-4.6749,-4.6905,-4.6905,-4.6904,-4.6904,-4.6903,0,-4.686,-4.6858,-4.6884,-4.69,-4.6922,-4.6884,-4.6893,-4.6914,-4.6947,-4.6952,-4.6972,-4.7007,-4.7033,-4.7019,-4.7041,-4.7066,-4.7049,-4.7073,-4.7071,-4.7071,-4.6939,-4.6924,-4.7087,-4.7087,-4.7087,-4.7087,-4.7087,-4.7086,-4.6949,-4.7006,-4.6991,-4.7049,-4.7045,-4.7082,-4.709,-4.7099,-4.7103,-4.7144,-4.7165,-4.7156,-4.7153,-4.7175,-4.7196,-4.7192,-4.7202,-4.7232,-4.7221,-4.7098,-4.708,-4.7063,-4.7049,-4.7235,-4.7235,-4.7351,-4.7352,-4.7353]}]]